COSMOS 1375 DEB

Satellite information

Favourite Embed

Satellite Type and Status

DEBRISIN ORBIT

Key statistics

Satellite COSMOS 1375 DEB at a glance.

Uptime

15898

Days in orbit

Revolutions

≈ 13.7

Per day

Orbit

LEO

Low Earth Orbit

Inclination

65.8

Latest

Satellite identification and parameters

Extended collection of information and parameters for COSMOS 1375 DEB.

Object identification

Identified? True

Debris? True

Object name: COSMOS 1375 DEB

International designator: 1982-055Y

Object number (NORAD): 16384

Object ID (CCSDS): 16384

Country: COMMONWEALTH OF INDEPENDENT STATES (CIS)

Current information (Y/N): Y

RCS size: SMALL

Orbital parameters

Period: 105.088 minutes

Inclination: 65.8307 deg

SMA: 7376.682 km

Apoapsis: 1025.488 km

Periapsis: 971.607 km

RAAN: 189.4042 deg

Eccentricy: 0.00365216

Argument of periapsis: 158.4148 deg

Mean anomaly: 351.8203 deg

Mean motion: 13.70285708 rev/day

Mean motion (dot): 0.00000146 rev/day2

B* drag term: 0.00025449544 1/REarth

Two-line elements (TLE)

Creation date: Dec. 14, 2025, 11:30 a.m.

Reference frame: TEME

Reference center: EARTH

Epoch: Dec. 14, 2025, 12:02 a.m. UTC

TLE line 0: 0 COSMOS 1375 DEB

TLE line 1: 1 16384U 82055Y 25348.00156747 .00000146 00000-0 25450-3 0 9994

TLE line 2: 2 16384 65.8307 189.4042 0036522 158.4148 351.8203 13.70285708 5468

Live tracking on map

Real-time ground track for satellite COSMOS 1375 DEB.

In-orbit conjunctions

A list of the most updated potential collisions computed for object COSMOS 1375 DEB.

Target Orbit TCA Probability of collision Miss distance Type
CZ-6A DEB SSO 2025-06-15 19:59:53 0.0001009487 458.0 (m) DEBRIS
THOR ABLESTAR DEB LEO 2025-03-06 00:20:41 0.00028903 121.0 (m) DEBRIS
N-1 R/B LEO 2024-11-26 09:50:19 0.0001591009 321.0 (m) ROCKET BODY
SL-8 R/B LEO 2024-11-15 16:22:46 0.000267929 815.0 (m) ROCKET BODY
NIMBUS 2 DEB SSO 2024-08-15 16:39:08 0.0002206662 188.0 (m) DEBRIS

Associated space launch

ASAT target satellite

COSMOS 1375 DEB was lifted into orbit during the mission ‘Kosmos-3M | DS-P1-M 16’, on board a Kosmos-3M space rocket.

The launch took place on June 6, 1982, 5:10 p.m. from 132/2.

For more information about the launch, click the button.

Launch to space Kosmos-3M | DS-P1-M 16
Kosmos-3M | DS-P1-M 16

Agency: N/A

Status: Launch Successful

Launch date: June 6, 1982, 5:10 p.m. UTC

Rocket: Kosmos-3M

Launch pad: 132/2

Location: Plesetsk Cosmodrome, Russian Federation

...

Latest news about this satellite

There are no fresh news available about this satellite. Check back as we update our databases every day.


Newsletter sign-up

Weekly statistics, charts and insights to help you stay on top of the space industry.